When you browse on this site, cookies collect data to enhance your experience and personalize the content and advertising you see.
Visit our Privacy Policy to learn more. By continuing to use the site, you agree to this use of cookies and data.
  • In Hungary
  • List of Countries
  • For 7 days
  • Water Temperature
  • Weather Map
  • News
  • Weather Widgets
  • user-avatar
    Login

    Hourly Weather Staraya Binaradka

    Today, 23 February, Sunday

    Time Temperature Precipitation Wind Pressure Humidity
    00:00 -8°C° 0 mm 2 mps 760 mmHg 92%
    01:00 -8°C° 0 mm 2 mps 760 mmHg 92%
    02:00 -8°C° 0 mm 2 mps 760 mmHg 92%
    03:00 -12°C° 0 mm 3 mps 760 mmHg 91%
    04:00 -12°C° 0 mm 3 mps 759 mmHg 92%
    05:00 -12°C° 0 mm 3 mps 758 mmHg 93%
    06:00 -12°C° 0 mm 4 mps 758 mmHg 94%
    07:00 -11°C° 0 mm 4 mps 757 mmHg 92%
    08:00 -9°C° 0 mm 4 mps 757 mmHg 91%
    09:00 -8°C° 0 mm 5 mps 756 mmHg 90%
    10:00 -7°C° 0 mm 5 mps 756 mmHg 90%
    11:00 -6°C° 0 mm 5 mps 755 mmHg 89%
    12:00 -5°C° 0 mm 6 mps 754 mmHg 88%
    13:00 -5°C° 0.2 mm 6 mps 753 mmHg 90%
    14:00 -7°C° 0.2 mm 7 mps 752 mmHg 92%
    15:00 -7°C° 0.2 mm 7 mps 752 mmHg 93%
    16:00 -7°C° 0.2 mm 7 mps 751 mmHg 93%
    17:00 -7°C° 0.2 mm 7 mps 750 mmHg 94%
    18:00 -7°C° 0.2 mm 7 mps 749 mmHg 94%
    19:00 -7°C° 0.3 mm 7 mps 748 mmHg 94%
    20:00 -6°C° 0.3 mm 8 mps 748 mmHg 93%
    21:00 -6°C° 0.3 mm 8 mps 747 mmHg 93%
    22:00 -6°C° 0.3 mm 7 mps 746 mmHg 94%
    23:00 -6°C° 0.3 mm 7 mps 745 mmHg 94%

    Tomorrow, 24 February, Monday

    Time Temperature Precipitation Wind Pressure Humidity
    00:00 -6°C° 0.3 mm 7 mps 744 mmHg 94%
    01:00 -6°C° 0.2 mm 7 mps 743 mmHg 94%
    02:00 -4°C° 0.2 mm 6 mps 743 mmHg 95%
    03:00 -4°C° 0.2 mm 6 mps 742 mmHg 95%
    04:00 -4°C° 0.5 mm 6 mps 741 mmHg 96%
    05:00 -3°C° 0.5 mm 6 mps 741 mmHg 97%
    06:00 -3°C° 0.5 mm 6 mps 740 mmHg 97%
    07:00 -3°C° 0.4 mm 6 mps 740 mmHg 97%
    08:00 -2°C° 0.4 mm 5 mps 740 mmHg 96%
    09:00 -2°C° 0.4 mm 5 mps 740 mmHg 95%
    10:00 -2°C° 0.3 mm 5 mps 740 mmHg 97%
    11:00 -2°C° 0.3 mm 4 mps 740 mmHg 98%
    12:00 -2°C° 0.3 mm 4 mps 740 mmHg 99%
    13:00 -1°C° 0 mm 3 mps 740 mmHg 99%
    14:00 -1°C° 0 mm 3 mps 740 mmHg 99%
    15:00 +1°C° 0 mm 2 mps 741 mmHg 99%
    16:00 -1°C° 0 mm 2 mps 741 mmHg 98%
    17:00 -1°C° 0 mm 2 mps 741 mmHg 97%
    18:00 -1°C° 0 mm 2 mps 742 mmHg 96%
    19:00 -1°C° 0 mm 3 mps 742 mmHg 96%
    20:00 -1°C° 0 mm 3 mps 742 mmHg 95%
    21:00 -2°C° 0 mm 4 mps 742 mmHg 94%
    22:00 -3°C° 0.1 mm 4 mps 741 mmHg 95%
    23:00 -3°C° 0.1 mm 4 mps 741 mmHg 95%

    Day after tomorrow, 25 February, Tuesday

    Time Temperature Precipitation Wind Pressure Humidity
    00:00 -4°C° 0.1 mm 4 mps 740 mmHg 95%
    01:00 -4°C° 0.5 mm 5 mps 740 mmHg 96%
    02:00 -2°C° 0.5 mm 5 mps 739 mmHg 97%
    03:00 -1°C° 0.5 mm 5 mps 739 mmHg 98%
    04:00 -2°C° 0.9 mm 6 mps 738 mmHg 98%
    05:00 -2°C° 0.9 mm 7 mps 738 mmHg 98%
    06:00 -2°C° 0.9 mm 7 mps 737 mmHg 98%
    07:00 -2°C° 0.6 mm 7 mps 737 mmHg 98%
    08:00 -2°C° 0.6 mm 7 mps 736 mmHg 98%
    09:00 -2°C° 0.6 mm 8 mps 736 mmHg 98%
    10:00 -2°C° 0.5 mm 7 mps 735 mmHg 98%
    11:00 -2°C° 0.5 mm 7 mps 735 mmHg 99%
    12:00 -2°C° 0.5 mm 7 mps 734 mmHg 99%
    13:00 -2°C° 0.3 mm 6 mps 734 mmHg 99%
    14:00 -2°C° 0.3 mm 6 mps 734 mmHg 98%
    15:00 -1°C° 0.3 mm 5 mps 734 mmHg 98%
    16:00 -1°C° 0.2 mm 5 mps 733 mmHg 98%
    17:00 -1°C° 0.2 mm 4 mps 733 mmHg 98%
    18:00 -2°C° 0.2 mm 4 mps 733 mmHg 98%
    19:00 -2°C° 0.5 mm 4 mps 734 mmHg 97%
    20:00 -2°C° 0.5 mm 5 mps 734 mmHg 97%
    21:00 -3°C° 0.5 mm 6 mps 735 mmHg 97%
    22:00 -4°C° 0.2 mm 6 mps 735 mmHg 94%
    23:00 -6°C° 0.2 mm 7 mps 736 mmHg 92%

    26 February, Wednesday

    Time Temperature Precipitation Wind Pressure Humidity
    00:00 -7°C° 0.2 mm 8 mps 736 mmHg 90%
    01:00 -7°C° 0 mm 7 mps 737 mmHg 89%
    02:00 -8°C° 0 mm 7 mps 738 mmHg 88%
    03:00 -8°C° 0 mm 7 mps 739 mmHg 87%
    04:00 -9°C° 0 mm 6 mps 740 mmHg 87%
    05:00 -9°C° 0 mm 6 mps 740 mmHg 87%
    06:00 -10°C° 0 mm 6 mps 741 mmHg 88%
    07:00 -9°C° 0 mm 6 mps 742 mmHg 87%
    08:00 -9°C° 0 mm 6 mps 742 mmHg 87%
    09:00 -7°C° 0 mm 5 mps 743 mmHg 87%
    10:00 -7°C° 0 mm 5 mps 743 mmHg 85%
    11:00 -6°C° 0 mm 5 mps 744 mmHg 83%
    12:00 -4°C° 0 mm 4 mps 744 mmHg 82%
    13:00 -4°C° 0 mm 4 mps 744 mmHg 83%
    14:00 -4°C° 0 mm 4 mps 744 mmHg 84%
    15:00 -4°C° 0 mm 4 mps 745 mmHg 85%
    16:00 -5°C° 0 mm 4 mps 745 mmHg 87%
    17:00 -5°C° 0 mm 4 mps 745 mmHg 89%
    18:00 -7°C° 0 mm 5 mps 745 mmHg 91%
    19:00 -6°C° 0 mm 5 mps 745 mmHg 92%
    20:00 -5°C° 0 mm 5 mps 745 mmHg 92%
    21:00 -4°C° 0 mm 5 mps 745 mmHg 93%
    22:00 -4°C° 0 mm 6 mps 745 mmHg 94%
    23:00 -3°C° 0 mm 6 mps 745 mmHg 95%

    27 February, Thursday

    Time Temperature Precipitation Wind Pressure Humidity
    00:00 -2°C° 0 mm 6 mps 745 mmHg 96%
    01:00 -2°C° 0.3 mm 6 mps 745 mmHg 96%
    02:00 -2°C° 0.3 mm 6 mps 745 mmHg 97%
    03:00 -2°C° 0.3 mm 6 mps 745 mmHg 97%
    04:00 -2°C° 0.4 mm 6 mps 745 mmHg 97%
    05:00 -2°C° 0.4 mm 6 mps 745 mmHg 97%
    06:00 -1°C° 0.4 mm 5 mps 745 mmHg 97%
    07:00 -1°C° 0.2 mm 5 mps 746 mmHg 97%
    08:00 -1°C° 0.2 mm 5 mps 746 mmHg 97%
    09:00 -1°C° 0.2 mm 5 mps 747 mmHg 97%
    10:00 -1°C° 0.1 mm 5 mps 747 mmHg 98%
    11:00 -1°C° 0.1 mm 5 mps 747 mmHg 98%
    12:00 -1°C° 0.1 mm 4 mps 748 mmHg 99%
    13:00 -1°C° 0.1 mm 4 mps 748 mmHg 98%
    14:00 -1°C° 0.1 mm 4 mps 748 mmHg 97%
    15:00 0°C° 0.1 mm 3 mps 748 mmHg 96%
    16:00 0°C° 0 mm 3 mps 748 mmHg 94%
    17:00 -1°C° 0 mm 3 mps 748 mmHg 92%
    18:00 -1°C° 0 mm 3 mps 748 mmHg 90%
    19:00 -1°C° 0 mm 3 mps 748 mmHg 91%
    20:00 -1°C° 0 mm 3 mps 748 mmHg 92%
    21:00 0°C° 0 mm 3 mps 748 mmHg 93%
    22:00 -1°C° 0 mm 4 mps 748 mmHg 93%
    23:00 -1°C° 0 mm 4 mps 748 mmHg 93%

    28 February, Friday

    Time Temperature Precipitation Wind Pressure Humidity
    00:00 0°C° 0 mm 4 mps 748 mmHg 92%
    01:00 0°C° 0 mm 4 mps 748 mmHg 92%
    02:00 -1°C° 0 mm 4 mps 748 mmHg 91%
    03:00 -1°C° 0 mm 4 mps 748 mmHg 91%
    04:00 -1°C° 0 mm 5 mps 748 mmHg 91%
    05:00 -1°C° 0 mm 5 mps 748 mmHg 91%
    06:00 -1°C° 0 mm 5 mps 748 mmHg 91%
    07:00 -1°C° 0 mm 5 mps 748 mmHg 91%
    08:00 -2°C° 0 mm 6 mps 748 mmHg 92%
    09:00 -2°C° 0 mm 6 mps 748 mmHg 92%
    10:00 -1°C° 0 mm 6 mps 748 mmHg 92%
    11:00 -1°C° 0 mm 6 mps 748 mmHg 93%
    12:00 0°C° 0 mm 5 mps 748 mmHg 93%
    13:00 0°C° 0 mm 5 mps 748 mmHg 92%
    14:00 0°C° 0 mm 5 mps 748 mmHg 91%
    15:00 0°C° 0 mm 5 mps 748 mmHg 89%
    16:00 0°C° 0 mm 5 mps 748 mmHg 87%
    17:00 -1°C° 0 mm 5 mps 748 mmHg 84%
    18:00 -1°C° 0 mm 5 mps 748 mmHg 82%
    19:00 -1°C° 0 mm 5 mps 748 mmHg 80%
    20:00 -1°C° 0 mm 5 mps 748 mmHg 78%
    21:00 -1°C° 0 mm 5 mps 748 mmHg 76%
    22:00 -1°C° 0 mm 5 mps 748 mmHg 76%
    23:00 -1°C° 0 mm 5 mps 748 mmHg 76%
    Show more